QPF
0.03 0.02 0.01 0.01 0.01 0.01 0.01 0.01 0.01 0.01 0.00 0.00 0.00 0.00 0.00 0.00 0.00 0.01 0.01 0.01 0.01 0.02 0.03 0.03 0.03 0.02 0.02 0.02 0.03 0.03 0.03 0.03 0.02 0.01 0.02 0.02 0.02 0.02 0.03 0.03 0.03 0.02 0.02
0.04 0.03 0.03 0.02 0.01 0.01 0.00 0.01 0.01 0.01 0.01 0.01 0.00 0.00 0.00 0.00 0.00 0.01 0.00 0.00 0.00 0.01 0.02 0.03 0.03 0.01 0.01 0.02 0.02 0.02 0.02 0.02 0.02 0.02 0.01 0.02 0.02 0.02 0.03 0.04 0.03 0.03 0.03
0.05 0.05 0.03 0.02 0.01 0.01 0.01 0.01 0.01 0.01 0.01 0.01 0.01 0.01 0.01 0.00 0.00 0.00 0.00 0.00 0.00 0.00 0.01 0.02 0.03 0.02 0.01 0.02 0.02 0.02 0.02 0.02 0.02 0.02 0.02 0.02 0.02 0.02 0.02 0.03 0.04 0.04 0.03
0.08 0.07 0.04 0.03 0.02 0.01 0.01 0.01 0.01 0.01 0.01 0.01 0.00 0.01 0.01 0.01 0.00 0.00 0.00 0.00 0.00 0.00 0.00 0.02 0.02 0.02 0.02 0.03 0.02 0.02 0.02 0.02 0.02 0.02 0.02 0.02 0.02 0.02 0.02 0.02 0.02 0.02 0.02
0.07 0.06 0.05 0.05 0.03 0.03 0.02 0.01 0.01 0.00 0.00 0.01 0.01 0.00 0.01 0.01 0.01 0.00 0.00 0.00 0.00 0.00 0.00 0.01 0.02 0.02 0.02 0.03 0.02 0.02 0.02 0.02 0.02 0.03 0.03 0.03 0.02 0.02 0.02 0.02 0.01 0.01 0.01
0.07 0.06 0.05 0.04 0.04 0.03 0.03 0.02 0.01 0.00 0.00 0.00 0.01 0.01 0.01 0.00 0.01 0.01 0.00 0.00 0.00 0.00 0.00 0.00 0.01 0.01 0.02 0.02 0.02 0.03 0.03 0.02 0.02 0.03 0.03 0.03 0.03 0.02 0.03 0.02 0.02 0.02 0.02
0.03 0.03 0.04 0.04 0.03 0.03 0.03 0.02 0.02 0.01 0.01 0.00 0.01 0.01 0.01 0.01 0.01 0.01 0.01 0.00 0.00 0.00 0.00 0.00 0.01 0.01 0.02 0.02 0.03 0.03 0.04 0.03 0.02 0.02 0.02 0.03 0.03 0.03 0.03 0.03 0.02 0.02 0.02
0.02 0.02 0.02 0.03 0.03 0.03 0.02 0.02 0.02 0.01 0.01 0.01 0.01 0.01 0.01 0.01 0.01 0.01 0.01 0.01 0.01 0.01 0.01 0.01 0.01 0.01 0.01 0.02 0.02 0.02 0.02 0.02 0.02 0.02 0.02 0.02 0.03 0.04 0.04 0.03 0.03 0.03 0.02
0.01 0.01 0.01 0.02 0.02 0.02 0.02 0.02 0.02 0.01 0.01 0.01 0.01 0.01 0.01 0.01 0.01 0.00 0.00 0.01 0.01 0.01 0.01 0.01 0.01 0.01 0.01 0.01 0.01 0.01 0.02 0.02 0.01 0.02 0.02 0.02 0.02 0.04 0.04 0.04 0.04 0.03 0.03
0.01 0.01 0.01 0.01 0.01 0.01 0.01 0.02 0.03 0.02 0.02 0.01 0.01 0.01 0.00 0.00 0.00 0.00 0.00 0.00 0.00 0.01 0.01 0.01 0.01 0.00 0.01 0.00 0.00 0.01 0.01 0.01 0.02 0.02 0.02 0.02 0.02 0.03 0.04 0.05 0.05 0.04 0.03
0.01 0.01 0.01 0.01 0.01 0.01 0.01 0.01 0.02 0.02 0.02 0.02 0.01 0.01 0.00 0.00 0.00 0.01 0.00 0.00 0.00 0.00 0.01 0.01 0.01 0.01 0.01 0.00 0.00 0.00 0.00 0.01 0.01 0.02 0.02 0.02 0.02 0.03 0.04 0.05 0.06 0.05 0.04
0.01 0.01 0.01 0.01 0.01 0.01 0.01 0.01 0.01 0.01 0.02 0.02 0.01 0.01 0.01 0.01 0.00 0.00 0.01 0.00 0.00 0.00 0.01 0.01 0.02 0.01 0.01 0.00 0.00 0.00 0.00 0.00 0.01 0.01 0.01 0.02 0.02 0.02 0.02 0.04 0.05 0.06 0.05
0.02 0.01 0.01 0.01 0.01 0.01 0.01 0.01 0.01 0.01 0.02 0.02 0.01 0.01 0.01 0.01 0.01 0.01 0.01 0.01 0.01 0.01 0.01 0.01 0.01 0.02 0.01 0.00 0.00 0.00 0.00 0.00 0.00 0.01 0.01 0.01 0.02 0.02 0.02 0.02 0.04 0.06 0.06
0.04 0.02 0.01 0.01 0.01 0.01 0.01 0.01 0.01 0.01 0.02 0.02 0.02 0.01 0.01 0.01 0.01 0.01 0.01 0.01 0.01 0.01 0.01 0.01 0.01 0.01 0.02 0.01 0.00 0.00 0.00 0.00 0.00 0.00 0.01 0.01 0.01 0.01 0.01 0.01 0.02 0.05 0.06
0.05 0.03 0.01 0.01 0.01 0.01 0.00 0.01 0.01 0.01 0.01 0.02 0.02 0.01 0.01 0.01 0.01 0.01 0.01 0.01 0.02 0.01 0.01 0.01 0.01 0.01 0.01 0.02 0.01 0.00 0.00 0.00 0.00 0.00 0.00 0.00 0.01 0.01 0.01 0.01 0.01 0.03 0.05
0.05 0.04 0.02 0.01 0.01 0.01 0.01 0.01 0.01 0.01 0.01 0.01 0.01 0.01 0.01 0.01 0.01 0.01 0.01 0.01 0.01 0.01 0.01 0.01 0.01 0.02 0.03 0.03 0.03 0.01 0.00 0.00 0.01 0.00 0.00 0.00 0.00 0.01 0.01 0.01 0.01 0.02 0.03
0.05 0.05 0.03 0.02 0.01 0.01 0.02 0.02 0.01 0.01 0.01 0.01 0.01 0.01 0.01 0.01 0.01 0.01 0.01 0.01 0.01 0.01 0.02 0.01 0.02 0.02 0.03 0.04 0.04 0.03 0.02 0.01 0.01 0.01 0.00 0.00 0.00 0.00 0.00 0.01 0.02 0.02 0.04
0.03 0.04 0.04 0.03 0.02 0.01 0.01 0.02 0.02 0.02 0.02 0.02 0.02 0.01 0.01 0.01 0.01 0.01 0.02 0.02 0.02 0.02 0.02 0.02 0.01 0.02 0.02 0.03 0.03 0.03 0.03 0.02 0.01 0.01 0.01 0.00 0.00 0.00 0.01 0.01 0.01 0.01 0.03
0.03 0.04 0.05 0.03 0.02 0.02 0.02 0.02 0.02 0.02 0.03 0.03 0.03 0.03 0.02 0.01 0.01 0.01 0.01 0.01 0.01 0.01 0.01 0.01 0.01 0.02 0.03 0.03 0.04 0.03 0.03 0.02 0.02 0.01 0.01 0.01 0.00 0.00 0.00 0.00 0.00 0.01 0.01
0.02 0.03 0.05 0.05 0.03 0.02 0.02 0.02 0.02 0.03 0.03 0.03 0.03 0.03 0.02 0.02 0.01 0.01 0.01 0.01 0.02 0.02 0.02 0.02 0.01 0.01 0.02 0.03 0.03 0.04 0.04 0.03 0.02 0.02 0.02 0.01 0.01 0.01 0.01 0.01 0.00 0.01 0.01
0.02 0.02 0.03 0.05 0.04 0.03 0.02 0.02 0.02 0.02 0.03 0.03 0.03 0.03 0.03 0.02 0.02 0.02 0.02 0.02 0.03 0.03 0.02 0.02 0.02 0.01 0.02 0.03 0.03 0.04 0.04 0.03 0.03 0.03 0.03 0.02 0.01 0.01 0.01 0.01 0.01 0.01 0.01
0.01 0.02 0.02 0.03 0.04 0.04 0.03 0.03 0.02 0.02 0.02 0.02 0.02 0.02 0.03 0.02 0.02 0.02 0.02 0.02 0.02 0.02 0.03 0.03 0.02 0.01 0.01 0.02 0.03 0.04 0.05 0.04 0.03 0.02 0.03 0.03 0.02 0.02 0.01 0.01 0.01 0.01 0.01
0.01 0.02 0.02 0.02 0.03 0.04 0.05 0.04 0.03 0.02 0.02 0.02 0.02 0.01 0.02 0.01 0.01 0.01 0.01 0.01 0.01 0.01 0.02 0.02 0.02 0.01 0.01 0.02 0.03 0.04 0.05 0.05 0.04 0.02 0.03 0.03 0.03 0.02 0.01 0.02 0.02 0.01 0.01
0.02 0.02 0.02 0.03 0.04 0.05 0.05 0.05 0.05 0.03 0.02 0.02 0.02 0.01 0.01 0.01 0.01 0.01 0.01 0.01 0.01 0.00 0.01 0.01 0.01 0.01 0.01 0.02 0.03 0.04 0.05 0.04 0.04 0.03 0.03 0.04 0.04 0.03 0.02 0.02 0.02 0.01 0.01
0.03 0.02 0.02 0.03 0.04 0.05 0.05 0.05 0.05 0.04 0.02 0.02 0.01 0.01 0.01 0.01 0.01 0.01 0.01 0.01 0.01 0.00 0.00 0.00 0.01 0.01 0.01 0.01 0.02 0.03 0.03 0.03 0.03 0.03 0.03 0.02 0.03 0.03 0.03 0.03 0.02 0.02 0.02
0.03 0.03 0.03 0.03 0.03 0.04 0.05 0.06 0.06 0.05 0.04 0.02 0.01 0.01 0.01 0.01 0.01 0.02 0.02 0.02 0.01 0.01 0.00 0.00 0.00 0.00 0.00 0.01 0.01 0.02 0.03 0.03 0.03 0.03 0.03 0.02 0.02 0.02 0.03 0.03 0.03 0.03 0.03
MSLP
1026.18 1026.24 1026.27 1026.26 1026.24 1026.21 1026.18 1026.16 1026.14 1026.12 1026.11 1026.09 1026.08 1026.07 1026.07 1026.09 1026.13 1026.19 1026.26 1026.33 1026.39 1026.42 1026.42 1026.37 1026.30 1026.21 1026.13 1026.07 1026.04 1026.04 1026.05 1026.07 1026.06 1026.03 1025.95 1025.84 1025.71 1025.57 1025.44 1025.34 1025.26 1025.20 1025.15
1026.25 1026.32 1026.35 1026.36 1026.37 1026.37 1026.38 1026.41 1026.44 1026.48 1026.53 1026.57 1026.61 1026.66 1026.70 1026.76 1026.83 1026.91 1026.99 1027.06 1027.11 1027.12 1027.09 1027.02 1026.93 1026.82 1026.73 1026.67 1026.64 1026.64 1026.66 1026.69 1026.69 1026.67 1026.60 1026.49 1026.36 1026.21 1026.06 1025.93 1025.82 1025.72 1025.63
1026.26 1026.33 1026.38 1026.42 1026.46 1026.51 1026.58 1026.66 1026.76 1026.87 1026.99 1027.10 1027.21 1027.31 1027.40 1027.50 1027.59 1027.69 1027.77 1027.82 1027.85 1027.84 1027.78 1027.69 1027.57 1027.44 1027.33 1027.25 1027.21 1027.20 1027.22 1027.25 1027.26 1027.25 1027.19 1027.10 1026.98 1026.83 1026.69 1026.55 1026.42 1026.31 1026.18
1026.24 1026.34 1026.41 1026.48 1026.56 1026.65 1026.77 1026.91 1027.07 1027.25 1027.43 1027.61 1027.78 1027.94 1028.08 1028.21 1028.32 1028.43 1028.51 1028.56 1028.57 1028.55 1028.47 1028.36 1028.23 1028.08 1027.95 1027.84 1027.78 1027.75 1027.74 1027.75 1027.76 1027.75 1027.71 1027.63 1027.53 1027.41 1027.28 1027.15 1027.03 1026.91 1026.78
1026.23 1026.36 1026.46 1026.56 1026.67 1026.79 1026.95 1027.13 1027.34 1027.56 1027.80 1028.03 1028.24 1028.44 1028.62 1028.78 1028.92 1029.03 1029.13 1029.19 1029.21 1029.19 1029.13 1029.02 1028.88 1028.73 1028.58 1028.45 1028.35 1028.29 1028.24 1028.22 1028.21 1028.19 1028.14 1028.08 1028.00 1027.91 1027.81 1027.71 1027.61 1027.49 1027.37
1026.23 1026.40 1026.53 1026.66 1026.78 1026.93 1027.09 1027.29 1027.52 1027.77 1028.03 1028.28 1028.53 1028.75 1028.95 1029.13 1029.29 1029.43 1029.55 1029.64 1029.70 1029.72 1029.69 1029.63 1029.52 1029.39 1029.24 1029.09 1028.96 1028.85 1028.76 1028.69 1028.64 1028.59 1028.54 1028.48 1028.42 1028.35 1028.28 1028.20 1028.12 1028.03 1027.92
1026.23 1026.43 1026.60 1026.74 1026.88 1027.02 1027.19 1027.38 1027.60 1027.84 1028.09 1028.35 1028.60 1028.83 1029.04 1029.23 1029.41 1029.58 1029.74 1029.88 1030.00 1030.09 1030.14 1030.14 1030.10 1030.01 1029.89 1029.74 1029.59 1029.44 1029.31 1029.19 1029.09 1029.00 1028.93 1028.86 1028.80 1028.74 1028.69 1028.63 1028.58 1028.51 1028.41
1026.19 1026.43 1026.63 1026.79 1026.93 1027.07 1027.22 1027.39 1027.58 1027.79 1028.02 1028.26 1028.49 1028.71 1028.91 1029.11 1029.30 1029.50 1029.70 1029.90 1030.10 1030.28 1030.43 1030.53 1030.58 1030.56 1030.50 1030.38 1030.23 1030.06 1029.89 1029.72 1029.58 1029.45 1029.34 1029.25 1029.18 1029.12 1029.07 1029.02 1028.97 1028.92 1028.84
1026.08 1026.37 1026.60 1026.78 1026.93 1027.07 1027.20 1027.34 1027.50 1027.68 1027.87 1028.07 1028.27 1028.47 1028.65 1028.84 1029.03 1029.24 1029.47 1029.73 1030.01 1030.28 1030.54 1030.75 1030.91 1030.99 1031.00 1030.94 1030.82 1030.65 1030.47 1030.28 1030.09 1029.93 1029.79 1029.67 1029.58 1029.50 1029.44 1029.39 1029.34 1029.28 1029.21
1025.89 1026.22 1026.50 1026.72 1026.89 1027.02 1027.15 1027.27 1027.41 1027.56 1027.72 1027.89 1028.06 1028.21 1028.37 1028.52 1028.70 1028.90 1029.15 1029.44 1029.77 1030.12 1030.47 1030.79 1031.05 1031.24 1031.34 1031.35 1031.29 1031.16 1030.99 1030.80 1030.60 1030.42 1030.26 1030.12 1030.01 1029.91 1029.83 1029.75 1029.68 1029.61 1029.53
1025.63 1026.02 1026.35 1026.61 1026.82 1026.97 1027.11 1027.23 1027.36 1027.50 1027.64 1027.78 1027.92 1028.04 1028.15 1028.27 1028.41 1028.58 1028.81 1029.10 1029.45 1029.84 1030.25 1030.65 1031.00 1031.28 1031.48 1031.58 1031.58 1031.51 1031.39 1031.23 1031.05 1030.88 1030.72 1030.57 1030.44 1030.32 1030.22 1030.12 1030.02 1029.93 1029.83
1025.35 1025.80 1026.18 1026.49 1026.74 1026.93 1027.09 1027.23 1027.37 1027.51 1027.65 1027.78 1027.90 1027.99 1028.07 1028.14 1028.22 1028.34 1028.52 1028.77 1029.10 1029.49 1029.92 1030.35 1030.77 1031.12 1031.40 1031.58 1031.67 1031.68 1031.62 1031.52 1031.39 1031.25 1031.11 1030.97 1030.85 1030.72 1030.60 1030.48 1030.36 1030.25 1030.13
1025.08 1025.58 1026.02 1026.38 1026.67 1026.91 1027.10 1027.27 1027.44 1027.60 1027.75 1027.88 1027.99 1028.07 1028.11 1028.13 1028.16 1028.21 1028.32 1028.51 1028.78 1029.12 1029.53 1029.97 1030.40 1030.80 1031.13 1031.39 1031.56 1031.65 1031.67 1031.64 1031.57 1031.49 1031.39 1031.29 1031.18 1031.06 1030.94 1030.81 1030.68 1030.55 1030.42
1024.88 1025.42 1025.89 1026.30 1026.62 1026.89 1027.11 1027.31 1027.50 1027.69 1027.87 1028.03 1028.14 1028.22 1028.24 1028.23 1028.20 1028.19 1028.23 1028.33 1028.53 1028.80 1029.16 1029.56 1029.98 1030.39 1030.75 1031.05 1031.28 1031.45 1031.54 1031.59 1031.59 1031.57 1031.52 1031.46 1031.39 1031.29 1031.19 1031.07 1030.94 1030.81 1030.68
1024.76 1025.32 1025.81 1026.22 1026.56 1026.84 1027.08 1027.30 1027.52 1027.74 1027.95 1028.14 1028.28 1028.37 1028.39 1028.37 1028.31 1028.25 1028.23 1028.26 1028.37 1028.57 1028.86 1029.20 1029.58 1029.97 1030.33 1030.66 1030.92 1031.13 1031.28 1031.39 1031.45 1031.49 1031.49 1031.47 1031.43 1031.37 1031.30 1031.20 1031.10 1030.98 1030.87
1024.73 1025.28 1025.76 1026.15 1026.48 1026.74 1026.98 1027.21 1027.44 1027.68 1027.93 1028.15 1028.33 1028.45 1028.50 1028.49 1028.43 1028.35 1028.29 1028.27 1028.33 1028.46 1028.67 1028.95 1029.28 1029.62 1029.96 1030.28 1030.55 1030.77 1030.95 1031.09 1031.18 1031.25 1031.29 1031.30 1031.29 1031.26 1031.22 1031.15 1031.08 1031.01 1030.93
1024.78 1025.29 1025.72 1026.07 1026.35 1026.58 1026.79 1027.00 1027.24 1027.50 1027.77 1028.03 1028.25 1028.42 1028.52 1028.54 1028.51 1028.45 1028.39 1028.35 1028.37 1028.46 1028.62 1028.84 1029.11 1029.40 1029.69 1029.97 1030.21 1030.42 1030.59 1030.72 1030.81 1030.88 1030.93 1030.95 1030.95 1030.94 1030.92 1030.89 1030.86 1030.83 1030.80
1024.88 1025.32 1025.68 1025.96 1026.18 1026.36 1026.53 1026.72 1026.95 1027.21 1027.50 1027.79 1028.06 1028.28 1028.43 1028.52 1028.54 1028.51 1028.48 1028.46 1028.47 1028.54 1028.66 1028.84 1029.05 1029.28 1029.52 1029.73 1029.93 1030.09 1030.22 1030.31 1030.37 1030.41 1030.43 1030.44 1030.43 1030.42 1030.41 1030.41 1030.42 1030.44 1030.46
1025.02 1025.37 1025.65 1025.85 1026.00 1026.12 1026.25 1026.41 1026.62 1026.89 1027.19 1027.51 1027.81 1028.07 1028.27 1028.41 1028.49 1028.52 1028.53 1028.53 1028.56 1028.63 1028.73 1028.87 1029.04 1029.22 1029.39 1029.54 1029.67 1029.77 1029.83 1029.87 1029.88 1029.87 1029.84 1029.81 1029.77 1029.74 1029.73 1029.74 1029.77 1029.83 1029.91
1025.20 1025.46 1025.65 1025.77 1025.85 1025.92 1026.02 1026.15 1026.35 1026.61 1026.91 1027.23 1027.55 1027.84 1028.08 1028.26 1028.38 1028.46 1028.51 1028.55 1028.60 1028.66 1028.76 1028.87 1029.00 1029.12 1029.24 1029.33 1029.39 1029.42 1029.42 1029.39 1029.33 1029.26 1029.18 1029.10 1029.02 1028.96 1028.93 1028.93 1028.97 1029.06 1029.17
1025.44 1025.61 1025.71 1025.77 1025.80 1025.83 1025.90 1026.02 1026.20 1026.44 1026.73 1027.05 1027.36 1027.65 1027.90 1028.09 1028.23 1028.33 1028.40 1028.46 1028.52 1028.59 1028.67 1028.76 1028.84 1028.92 1028.98 1029.02 1029.02 1029.00 1028.94 1028.85 1028.74 1028.62 1028.49 1028.36 1028.24 1028.14 1028.08 1028.07 1028.10 1028.19 1028.32
1025.78 1025.86 1025.89 1025.89 1025.89 1025.90 1025.95 1026.05 1026.22 1026.45 1026.71 1027.00 1027.28 1027.54 1027.75 1027.93 1028.05 1028.15 1028.21 1028.27 1028.32 1028.37 1028.43 1028.48 1028.53 1028.57 1028.59 1028.58 1028.54 1028.47 1028.38 1028.26 1028.11 1027.96 1027.79 1027.63 1027.47 1027.35 1027.26 1027.22 1027.23 1027.30 1027.43
1026.24 1026.24 1026.21 1026.17 1026.14 1026.14 1026.18 1026.28 1026.43 1026.62 1026.85 1027.09 1027.31 1027.51 1027.68 1027.80 1027.88 1027.94 1027.97 1027.99 1028.01 1028.03 1028.05 1028.07 1028.07 1028.07 1028.04 1028.00 1027.93 1027.84 1027.73 1027.60 1027.45 1027.29 1027.11 1026.94 1026.77 1026.62 1026.50 1026.43 1026.42 1026.47 1026.57
1026.83 1026.76 1026.68 1026.61 1026.57 1026.56 1026.59 1026.67 1026.80 1026.96 1027.13 1027.30 1027.46 1027.58 1027.67 1027.73 1027.75 1027.75 1027.73 1027.70 1027.67 1027.64 1027.60 1027.57 1027.52 1027.47 1027.41 1027.33 1027.25 1027.15 1027.04 1026.92 1026.78 1026.63 1026.46 1026.29 1026.12 1025.96 1025.83 1025.74 1025.69 1025.71 1025.78
1027.54 1027.40 1027.28 1027.19 1027.12 1027.10 1027.12 1027.19 1027.28 1027.39 1027.51 1027.61 1027.69 1027.74 1027.75 1027.73 1027.69 1027.63 1027.55 1027.47 1027.38 1027.29 1027.19 1027.09 1026.99 1026.88 1026.77 1026.66 1026.56 1026.45 1026.34 1026.23 1026.11 1025.98 1025.83 1025.68 1025.52 1025.36 1025.22 1025.10 1025.04 1025.02 1025.05
1028.31 1028.12 1027.96 1027.84 1027.76 1027.72 1027.72 1027.76 1027.81 1027.87 1027.93 1027.96 1027.97 1027.95 1027.90 1027.83 1027.74 1027.63 1027.50 1027.37 1027.23 1027.08 1026.92 1026.75 1026.58 1026.41 1026.24 1026.08 1025.94 1025.81 1025.69 1025.57 1025.46 1025.34 1025.21 1025.06 1024.91 1024.75 1024.60 1024.47 1024.38 1024.34 1024.34
Thickness
5604 5604 5605 5605 5606 5607 5609 5610 5611 5612 5614 5615 5616 5618 5619 5620 5621 5622 5622 5622 5624 5625 5627 5627 5628 5629 5629 5630 5630 5631 5631 5632 5633 5633 5634 5634 5635 5635 5636 5636 5637 5637 5638
5596 5596 5597 5597 5598 5598 5600 5601 5602 5603 5605 5606 5607 5609 5610 5611 5612 5613 5614 5615 5615 5617 5618 5619 5620 5621 5622 5623 5623 5624 5624 5625 5625 5626 5627 5627 5627 5628 5629 5629 5630 5631 5631
5586 5587 5588 5588 5589 5589 5590 5591 5592 5594 5595 5596 5598 5599 5601 5602 5603 5604 5605 5606 5607 5608 5609 5610 5611 5612 5613 5614 5615 5616 5616 5617 5618 5618 5619 5619 5620 5620 5621 5622 5623 5624 5625
5576 5577 5578 5579 5579 5579 5581 5582 5583 5584 5585 5586 5587 5589 5590 5592 5593 5595 5596 5597 5599 5600 5600 5601 5602 5603 5604 5606 5607 5608 5609 5609 5610 5611 5611 5612 5613 5613 5614 5615 5616 5617 5617
5566 5567 5567 5568 5568 5569 5570 5571 5572 5573 5574 5575 5576 5577 5580 5582 5583 5585 5587 5588 5589 5590 5591 5592 5593 5594 5595 5596 5598 5599 5600 5601 5602 5603 5603 5604 5605 5606 5607 5607 5608 5609 5610
5555 5556 5556 5556 5557 5559 5560 5560 5561 5561 5563 5563 5565 5566 5568 5570 5572 5575 5577 5578 5579 5580 5582 5583 5584 5585 5585 5586 5588 5590 5591 5592 5593 5594 5595 5596 5597 5598 5599 5600 5601 5602 5603
5544 5545 5545 5545 5546 5548 5549 5549 5550 5550 5551 5551 5554 5556 5558 5560 5562 5564 5566 5568 5569 5570 5572 5573 5574 5575 5576 5576 5577 5579 5581 5582 5583 5585 5586 5588 5589 5590 5591 5592 5593 5594 5595
5533 5533 5534 5534 5535 5536 5537 5538 5538 5539 5539 5540 5543 5547 5551 5552 5552 5554 5555 5557 5559 5561 5562 5563 5564 5565 5566 5567 5568 5569 5570 5572 5573 5575 5577 5578 5580 5581 5582 5584 5585 5586 5586
5521 5521 5522 5522 5523 5524 5525 5526 5527 5528 5529 5528 5530 5535 5541 5547 5544 5544 5545 5547 5548 5550 5552 5553 5554 5555 5556 5557 5558 5558 5559 5561 5563 5565 5567 5569 5570 5572 5574 5575 5576 5577 5578
5509 5509 5509 5510 5511 5512 5513 5514 5515 5516 5518 5519 5518 5520 5524 5529 5532 5535 5535 5536 5537 5539 5541 5543 5544 5545 5546 5547 5547 5548 5549 5550 5552 5554 5556 5558 5560 5562 5564 5565 5566 5567 5569
5497 5497 5497 5497 5498 5499 5500 5501 5502 5504 5506 5508 5510 5510 5512 5514 5518 5523 5528 5527 5527 5528 5529 5531 5533 5535 5536 5536 5537 5537 5538 5539 5541 5543 5545 5547 5549 5551 5552 5554 5555 5557 5558
5486 5485 5485 5485 5486 5487 5488 5489 5490 5493 5495 5497 5498 5501 5503 5505 5508 5510 5515 5517 5518 5518 5518 5520 5522 5524 5525 5525 5526 5526 5527 5528 5530 5531 5533 5535 5537 5539 5540 5542 5543 5545 5546
5475 5475 5474 5474 5475 5475 5476 5477 5479 5481 5483 5485 5487 5489 5491 5493 5494 5497 5501 5503 5505 5507 5508 5510 5511 5512 5513 5514 5515 5515 5516 5517 5518 5520 5521 5523 5525 5526 5528 5529 5531 5533 5534
5465 5464 5463 5463 5463 5464 5464 5465 5467 5469 5471 5473 5475 5477 5479 5480 5481 5484 5487 5489 5492 5496 5499 5502 5501 5501 5502 5503 5503 5504 5505 5506 5507 5508 5510 5511 5513 5514 5515 5517 5519 5521 5522
5452 5452 5452 5453 5453 5453 5454 5455 5457 5458 5460 5462 5463 5465 5467 5468 5469 5471 5473 5475 5479 5485 5491 5492 5491 5491 5490 5490 5491 5492 5494 5495 5496 5497 5498 5500 5501 5502 5504 5505 5507 5509 5510
5440 5440 5440 5441 5442 5442 5443 5444 5446 5447 5448 5450 5451 5453 5455 5456 5457 5458 5460 5462 5465 5469 5475 5479 5478 5478 5477 5478 5478 5480 5482 5483 5484 5485 5486 5488 5489 5491 5492 5493 5495 5496 5498
5428 5428 5429 5429 5430 5431 5432 5433 5435 5436 5437 5439 5440 5442 5443 5444 5445 5446 5447 5449 5451 5454 5459 5464 5463 5463 5464 5465 5467 5468 5470 5471 5473 5473 5474 5476 5477 5479 5480 5481 5482 5484 5485
5416 5417 5417 5417 5418 5419 5420 5422 5423 5424 5426 5428 5429 5430 5431 5432 5433 5434 5435 5436 5439 5441 5443 5448 5450 5450 5451 5452 5454 5455 5458 5459 5460 5461 5462 5463 5464 5466 5467 5468 5469 5471 5472
5404 5405 5405 5406 5406 5407 5408 5410 5411 5413 5414 5416 5417 5418 5419 5420 5421 5422 5423 5424 5426 5427 5429 5433 5436 5437 5438 5438 5440 5443 5445 5447 5448 5450 5450 5451 5452 5453 5454 5455 5456 5457 5458
5393 5394 5394 5394 5395 5395 5396 5398 5399 5401 5402 5404 5404 5406 5406 5407 5409 5410 5410 5411 5412 5414 5416 5418 5422 5424 5425 5426 5427 5430 5433 5435 5436 5437 5438 5438 5439 5439 5440 5442 5443 5444 5444
5382 5383 5383 5384 5384 5384 5386 5387 5388 5389 5390 5391 5392 5393 5393 5394 5395 5395 5397 5399 5399 5400 5403 5406 5408 5410 5412 5412 5414 5416 5418 5421 5424 5424 5426 5427 5426 5427 5428 5428 5429 5429 5430
5370 5371 5372 5372 5373 5374 5375 5375 5375 5377 5377 5378 5380 5380 5380 5380 5381 5381 5382 5383 5384 5386 5390 5392 5395 5396 5399 5400 5400 5401 5402 5405 5410 5412 5410 5413 5412 5414 5415 5415 5415 5415 5415
5358 5359 5360 5360 5361 5362 5362 5363 5363 5364 5365 5366 5367 5367 5367 5368 5368 5368 5369 5369 5370 5371 5374 5376 5379 5382 5383 5384 5385 5386 5387 5389 5393 5394 5393 5398 5399 5400 5401 5402 5401 5401 5401
5346 5347 5348 5349 5349 5350 5350 5350 5350 5351 5352 5352 5352 5353 5352 5353 5354 5354 5355 5356 5357 5359 5361 5362 5365 5367 5366 5367 5368 5370 5371 5373 5376 5376 5377 5382 5386 5386 5388 5389 5389 5388 5388
5334 5335 5336 5336 5337 5338 5338 5338 5338 5338 5339 5339 5339 5339 5339 5340 5340 5340 5341 5343 5344 5345 5345 5347 5349 5350 5351 5351 5352 5353 5355 5357 5362 5364 5363 5365 5369 5370 5373 5375 5376 5375 5374
5322 5323 5324 5324 5326 5327 5327 5326 5325 5326 5327 5327 5327 5327 5327 5327 5327 5327 5327 5329 5331 5333 5333 5334 5334 5336 5337 5338 5337 5338 5340 5342 5345 5349 5351 5350 5352 5351 5357 5362 5361 5361 5360